Stations météo

Publicité
Los Angeles/Int., Etats-Unis (72295): Température de l'air & dewpoint: 20.04.2018 08:00:00 - 26.04.2018 08:00:00 (PDT)Los Angeles/Int., Etats-Unis (72295): Vitesse du vent: 20.04.2018 08:00:00 - 26.04.2018 08:00:00 (PDT)Los Angeles/Int., Etats-Unis (72295): Direction du vent: 20.04.2018 08:00:00 - 26.04.2018 08:00:00 (PDT)Los Angeles/Int., Etats-Unis (72295): reduced air pressure: 20.04.2018 08:00:00 - 26.04.2018 08:00:00 (PDT)Los Angeles/Int., Etats-Unis (72295): visibility: 20.04.2018 08:00:00 - 26.04.2018 08:00:00 (PDT)Los Angeles/Int., Etats-Unis (72295): Quantités de précipitations: 20.04.2018 08:00:00 - 26.04.2018 08:00:00 (PDT)
Date & Time tt [°C] td [°C] ff [km/h] ff [knt] dd ppp [hPa] vv [km] rr [mm]
26.04.2018 08:00:00 13,9 10,6 0 0 N 1017,2 15 -
26.04.2018 07:00:00 13,3 10,0 0 0 N 1016,7 13 -
26.04.2018 06:00:00 13,3 10,6 9 5 W 1016,2 15 -
26.04.2018 05:00:00 13,3 10,6 8 4 W 1015,7 16 0,0
26.04.2018 04:00:00 13,3 10,6 5 3 W 1015,8 16 -
26.04.2018 03:00:00 13,3 10,6 8 4 WNW 1015,9 16 -
26.04.2018 02:00:00 13,3 11,1 8 4 WSW 1016,6 16 -
26.04.2018 01:00:00 13,3 11,1 13 7 W 1017,3 16 -
26.04.2018 00:00:00 13,9 11,1 16 9 WSW 1017,5 16 -
25.04.2018 23:00:00 13,9 11,1 16 9 W 1017,4 16 0,0
25.04.2018 22:00:00 13,9 11,7 18 10 WSW 1017,3 16 -
25.04.2018 21:00:00 14,4 11,7 16 9 W 1016,9 16 -
25.04.2018 20:00:00 14,4 11,1 18 10 WSW 1016,7 16 -
25.04.2018 19:00:00 15,0 11,1 21 11 WSW 1016,4 16 -
25.04.2018 18:00:00 16,1 10,6 24 13 WSW 1016,6 16 -
25.04.2018 17:00:00 16,7 10,6 21 11 W 1016,8 16 0,0
25.04.2018 16:00:00 17,2 10,6 21 11 WSW 1017,2 16 -
25.04.2018 15:00:00 17,2 10,0 18 10 W 1017,7 16 -
25.04.2018 14:00:00 16,7 10,0 18 10 W 1018,3 13 -
25.04.2018 13:00:00 16,7 10,0 18 10 W 1019,0 15 -
25.04.2018 12:00:00 16,1 10,0 18 10 WSW 1019,4 11 -
25.04.2018 11:00:00 16,1 10,6 18 10 WSW 1019,4 10 0,0
25.04.2018 10:00:00 16,1 10,6 15 8 W 1018,9 10 -
25.04.2018 09:00:00 15,0 10,6 8 4 W 1018,7 10 -
25.04.2018 08:00:00 14,4 10,6 5 3 E 1018,4 8 -
25.04.2018 07:00:00 13,9 10,0 5 3 ENE 1017,9 8 -
25.04.2018 06:00:00 13,3 10,0 0 0 N 1017,8 10 -
25.04.2018 05:00:00 13,3 10,0 0 0 N 1017,7 10 0,0
25.04.2018 04:00:00 13,3 10,6 8 4 SSE 1017,8 11 -
25.04.2018 03:00:00 12,8 10,6 0 0 N 1017,6 13 -
25.04.2018 02:00:00 12,8 10,6 9 5 WSW 1017,7 11 -
25.04.2018 01:00:00 12,8 11,1 5 3 W 1017,6 13 -
25.04.2018 00:00:00 13,3 11,1 11 6 W 1017,6 13 -
24.04.2018 23:00:00 13,3 11,7 13 7 W 1017,3 16 0,0
24.04.2018 22:00:00 13,3 11,1 8 4 WSW 1016,6 16 -
24.04.2018 21:00:00 13,3 11,1 8 4 W 1016,2 16 -
24.04.2018 20:00:00 13,9 10,6 11 6 W 1015,7 16 -
24.04.2018 19:00:00 13,9 10,6 13 7 W 1015,7 16 -
24.04.2018 18:00:00 15,0 10,6 16 9 WSW 1015,6 16 -
24.04.2018 17:00:00 15,6 10,6 16 9 WSW 1015,8 16 0,0
24.04.2018 16:00:00 16,1 11,1 24 13 W 1016,1 16 -
24.04.2018 15:00:00 16,7 11,1 18 10 W 1016,5 15 -
24.04.2018 14:00:00 16,7 11,1 21 11 W 1016,8 11 -
24.04.2018 13:00:00 16,1 10,6 16 9 W 1017,1 11 -
24.04.2018 12:00:00 16,7 11,1 16 9 W 1017,4 8 -
24.04.2018 11:00:00 16,7 11,1 18 10 WSW 1017,5 6 0,0
24.04.2018 10:00:00 16,1 11,1 0 0 N 1016,9 6 -
24.04.2018 09:00:00 14,4 10,6 0 0 N 1016,5 4,0 -
24.04.2018 08:00:00 13,3 11,1 5 3 E 1016,7 3,2 -
24.04.2018 07:00:00 12,8 11,7 0 0 N 1016,5 3,2 -
24.04.2018 06:00:00 12,8 11,1 9 5 SSW 1015,9 3,2 -
24.04.2018 05:00:00 12,8 10,6 9 5 S 1015,4 4,8 0,0
24.04.2018 04:00:00 12,2 10,6 0 0 N 1015,1 4,8 -
24.04.2018 03:00:00 12,2 10,6 0 0 N 1015,6 4,8 -
24.04.2018 02:00:00 13,3 11,7 5 3 S 1015,7 4,8 -
24.04.2018 01:00:00 12,8 11,7 5 3 WSW 1016,4 4,0 -
24.04.2018 00:00:00 12,8 11,7 8 4 W 1016,3 4,0 -
23.04.2018 23:00:00 12,8 11,1 8 4 SW 1016,4 1,2 0,0
23.04.2018 22:00:00 13,3 11,1 9 5 S 1016,2 11 -
23.04.2018 21:00:00 12,8 11,1 9 5 WSW 1015,9 13 -
23.04.2018 20:00:00 12,8 11,1 9 5 WSW 1015,3 16 -
23.04.2018 19:00:00 13,3 11,1 16 9 W 1015,0 16 -
23.04.2018 18:00:00 14,4 11,1 24 13 W 1015,0 16 -
23.04.2018 17:00:00 15,6 11,7 24 13 W 1015,0 13 0,0
23.04.2018 16:00:00 16,7 12,8 21 11 WSW 1015,0 16 -
23.04.2018 15:00:00 17,8 12,2 24 13 W 1015,2 16 -
23.04.2018 14:00:00 18,9 12,8 18 10 W 1015,4 13 -
23.04.2018 13:00:00 18,9 12,8 16 9 W 1015,9 11 -
23.04.2018 12:00:00 18,9 12,8 15 8 W 1016,7 10 -
23.04.2018 11:00:00 18,9 12,8 11 6 W 1017,1 10 0,0
23.04.2018 10:00:00 18,3 12,8 0 0 N 1016,9 4,8 -
23.04.2018 09:00:00 15,6 12,8 0 0 N 1016,7 3,2 -
23.04.2018 08:00:00 14,4 12,8 9 5 ENE 1016,4 2,4 -
23.04.2018 07:00:00 13,9 12,8 0 0 N 1015,9 2,4 -
23.04.2018 06:00:00 13,9 12,8 0 0 N 1015,2 2,4 -
23.04.2018 05:00:00 13,9 13,3 0 0 N 1014,8 4,0 0,0
23.04.2018 04:00:00 14,4 13,3 0 0 N 1014,4 4,0 -
23.04.2018 03:00:00 14,4 13,3 0 0 N 1014,3 4,0 -
23.04.2018 02:00:00 14,4 12,8 0 0 N 1014,2 10 -
23.04.2018 01:00:00 14,4 13,3 5 3 NNE 1014,3 8 -
23.04.2018 00:00:00 14,4 13,3 5 3 W 1014,5 13 -
22.04.2018 23:00:00 15,0 12,8 0 0 N 1014,5 11 0,0
22.04.2018 22:00:00 15,0 13,3 9 5 S 1014,3 11 -
22.04.2018 21:00:00 15,6 13,9 11 6 WSW 1013,4 13 -
22.04.2018 20:00:00 15,6 13,9 5 3 - 1012,8 11 -
22.04.2018 19:00:00 16,7 13,9 18 10 WSW 1012,3 15 -
22.04.2018 18:00:00 18,3 13,9 18 10 W 1012,2 16 -
22.04.2018 17:00:00 18,3 12,8 18 10 W 1012,3 16 0,0
22.04.2018 16:00:00 19,4 12,8 22 12 WSW 1012,5 16 -
22.04.2018 15:00:00 21,1 11,7 21 11 W 1013,1 16 -
22.04.2018 14:00:00 22,2 11,1 16 9 WSW 1013,3 16 -
22.04.2018 13:00:00 20,6 12,2 18 10 WSW 1013,6 16 -
22.04.2018 12:00:00 19,4 12,8 21 11 WSW 1014,0 16 -
22.04.2018 11:00:00 20,0 12,2 15 8 WSW 1014,1 16 0,0
22.04.2018 10:00:00 20,6 12,2 11 6 W 1014,0 16 -
22.04.2018 09:00:00 18,9 12,2 0 0 N 1014,0 16 -
22.04.2018 08:00:00 16,7 11,7 8 4 ESE 1014,1 15 -
22.04.2018 07:00:00 14,4 11,7 8 4 E 1013,7 15 -
22.04.2018 06:00:00 13,9 11,1 9 5 ENE 1013,7 16 -
22.04.2018 05:00:00 13,9 11,7 0 0 N 1013,6 16 0,0
22.04.2018 04:00:00 14,4 11,7 0 0 N 1013,7 16 -
22.04.2018 03:00:00 14,4 11,7 8 4 WSW 1014,0 16 -
22.04.2018 02:00:00 14,4 11,7 9 5 WSW 1014,4 16 -
22.04.2018 01:00:00 15,6 11,7 5 3 NE 1014,7 16 -
22.04.2018 00:00:00 15,6 11,7 5 3 N 1014,9 16 -
21.04.2018 23:00:00 15,6 11,7 9 5 S 1014,9 16 0,0
21.04.2018 22:00:00 16,1 12,2 9 5 WSW 1014,7 16 -
21.04.2018 21:00:00 16,1 11,7 15 8 WSW 1014,6 16 -
21.04.2018 20:00:00 16,1 11,7 13 7 WSW 1014,5 16 -
21.04.2018 19:00:00 16,7 11,1 21 11 WSW 1014,4 16 -
21.04.2018 18:00:00 17,8 11,1 21 11 W 1014,5 16 -
21.04.2018 17:00:00 18,3 11,1 22 12 WSW 1014,8 16 0,0
21.04.2018 16:00:00 19,4 10,0 28 15 W 1015,0 16 -
21.04.2018 15:00:00 21,1 10,0 26 14 W 1015,6 16 -
21.04.2018 14:00:00 21,1 10,6 24 13 W 1016,5 16 -
21.04.2018 13:00:00 20,6 10,0 24 13 W 1016,9 16 -
21.04.2018 12:00:00 21,7 10,6 21 11 W 1017,3 16 -
21.04.2018 11:00:00 23,9 7,8 0 0 N 1017,5 16 0,0
21.04.2018 10:00:00 21,1 8,9 9 5 ESE 1017,9 16 -
21.04.2018 09:00:00 18,3 10,6 9 5 ENE 1018,1 16 -
21.04.2018 08:00:00 15,0 11,7 8 4 N 1018,4 16 -
21.04.2018 07:00:00 11,7 11,7 5 3 NNE 1017,8 4,8 -
21.04.2018 06:00:00 11,7 11,7 5 3 N 1017,6 0,8 -
21.04.2018 05:00:00 12,8 11,7 5 3 NNW 1017,6 1,2 0,0
21.04.2018 04:00:00 12,8 11,7 9 5 W 1017,5 15 -
21.04.2018 03:00:00 13,3 10,6 9 5 WSW 1017,6 16 -
21.04.2018 02:00:00 13,9 11,1 0 0 N 1018,0 16 -
21.04.2018 01:00:00 14,4 11,1 8 4 WSW 1018,9 16 -
21.04.2018 00:00:00 13,9 10,0 0 0 N 1019,4 16 -
20.04.2018 23:00:00 13,9 10,6 8 4 NE 1019,2 16 0,0
20.04.2018 22:00:00 14,4 11,1 0 0 N 1019,3 16 -
20.04.2018 21:00:00 14,4 10,6 8 4 WSW 1019,1 16 -
20.04.2018 20:00:00 14,4 11,1 18 10 WSW 1018,4 16 -
20.04.2018 19:00:00 15,6 10,6 21 11 WSW 1018,1 13 -
20.04.2018 18:00:00 16,1 11,7 22 12 WSW 1018,0 16 -
20.04.2018 17:00:00 16,7 11,7 28 15 SW 1018,0 15 0,0
20.04.2018 16:00:00 17,8 10,0 31 17 WSW 1018,0 16 -
20.04.2018 15:00:00 18,3 7,8 31 17 W 1018,1 16 -
20.04.2018 14:00:00 18,9 10,0 26 14 W 1018,4 16 -
20.04.2018 13:00:00 21,1 9,4 21 11 WSW 1018,6 16 -
20.04.2018 12:00:00 20,6 7,8 8 4 - 1019,0 16 -
20.04.2018 11:00:00 18,3 8,3 0 0 N 1019,8 16 0,0
20.04.2018 10:00:00 16,1 8,9 0 0 N 1020,5 13 -
20.04.2018 09:00:00 13,9 8,9 5 3 SSE 1020,7 13 -
20.04.2018 08:00:00 13,3 8,9 9 5 SE 1020,5 13 -

tt = Température de l'air
td = dewpoint
ff = Vitesse du vent
dd = Direction du vent
ppp = reduced air pressure
vv = visibility
rr = Quantités de précipitations

stations d'obs. à proximité